,,PA_Meas_PMT16A,,PR_Meas_QMR101_102,,RH_Meas_QMH101,,SR_Meas_QMS101,,TA_Meas_QMH101,,GenWind,,GenWind,
time,status,PA,status,PR,status,RH,status,SR,status,TA,status,DirAvg,status,SpdAvg,
2016-11-27, 15:18:04,VALID,917.557,VALID,0,INVALID,114.748,VALID,144.508,VALID,19.9773,VALID,17,VALID,1.03164,
2016-11-27, 15:31:04,VALID,917.676,VALID,0,INVALID,114.832,VALID,195.221,VALID,19.9984,VALID,8,VALID,0.872656,
2016-11-27, 15:32:04,VALID,917.675,VALID,0,INVALID,114.854,VALID,146.227,VALID,19.9758,VALID,311,VALID,0.559766,
2016-11-27, 15:34:04,VALID,917.718,VALID,0,INVALID,114.755,VALID,141.93,VALID,20.0928,VALID,354,VALID,0,
2016-11-27, 15:35:04,VALID,917.675,VALID,0,INVALID,114.832,VALID,158.691,VALID,20.0538,VALID,330,VALID,1.54648,
2016-11-27, 15:36:04,VALID,917.666,VALID,0,INVALID,115.007,VALID,169.65,VALID,19.9368,VALID,8,VALID,2.00078,
2016-11-27, 15:39:04,VALID,917.689,VALID,0,INVALID,114.847,VALID,201.452,VALID,20.1123,VALID,358,VALID,0.820313,
2016-11-27, 15:40:04,VALID,917.666,VALID,0,INVALID,114.763,VALID,175.774,VALID,20.1903,VALID,356,VALID,1.46133,
2016-11-27, 15:41:04,VALID,917.682,VALID,0,INVALID,114.748,VALID,160.517,VALID,20.2489,VALID,50,VALID,0.623438,
2016-11-27, 15:42:04,VALID,917.657,VALID,0,INVALID,114.786,VALID,161.591,VALID,20.2684,VALID,42,VALID,0.369141,
2016-11-27, 15:43:04,VALID,917.707,VALID,0,INVALID,114.755,VALID,166.749,VALID,20.2879,VALID,206,VALID,0.763281,
2016-11-27, 15:44:04,VALID,917.66,VALID,0,INVALID,114.74,VALID,361.432,VALID,20.2879,VALID,75,VALID,0,
2016-11-27, 15:45:04,VALID,917.701,VALID,0,INVALID,114.816,VALID,248.834,VALID,20.2879,VALID,31,VALID,0,
2016-11-27, 15:46:04,VALID,917.67,VALID,0,INVALID,114.771,VALID,353.267,VALID,20.3269,VALID,227,VALID,1.26055,
2016-11-27, 15:47:04,VALID,917.687,VALID,0,INVALID,114.755,VALID,179.856,VALID,20.3854,VALID,26,VALID,0.289063,
2016-11-27, 15:48:04,VALID,917.699,VALID,0,INVALID,114.778,VALID,316.199,VALID,20.4244,VALID,50,VALID,0.562109,
2016-11-27, 15:49:04,VALID,917.725,VALID,0,INVALID,114.755,VALID,220.039,VALID,20.5219,VALID,322,VALID,0,
2016-11-27, 15:50:04,VALID,917.717,VALID,0,INVALID,114.656,VALID,237.23,VALID,20.6585,VALID,1,VALID,0,
2016-11-27, 15:51:04,VALID,917.706,VALID,0,INVALID,114.74,VALID,204.138,VALID,20.5609,VALID,264,VALID,1.32734,
2016-11-27, 15:52:04,VALID,917.737,VALID,0,INVALID,114.801,VALID,241.42,VALID,20.5609,VALID,296,VALID,0.924609,
2016-11-27, 15:53:04,VALID,917.749,VALID,0,INVALID,114.725,VALID,272.363,VALID,20.639,VALID,26,VALID,1.15859,
2016-11-27, 15:54:04,VALID,917.737,VALID,0,INVALID,114.618,VALID,289.232,VALID,20.8324,VALID,32,VALID,0,
2016-11-27, 15:55:04,VALID,917.766,VALID,0,INVALID,114.618,VALID,245.718,VALID,20.912,VALID,67,VALID,0.289063,
2016-11-27, 15:56:04,VALID,917.786,VALID,0,INVALID,114.595,VALID,390.656,VALID,20.9706,VALID,78,VALID,0,
2016-11-27, 15:57:04,VALID,917.761,VALID,0,INVALID,114.854,VALID,321.034,VALID,20.7739,VALID,325,VALID,1.39492,
2016-11-27, 15:58:04,VALID,917.792,VALID,0,INVALID,114.893,VALID,266.991,VALID,20.8129,VALID,52,VALID,0.877734,
2016-11-27, 15:59:04,VALID,917.804,VALID,0,INVALID,114.847,VALID,231.643,VALID,20.9105,VALID,22,VALID,0.594531,
2016-11-27, 16:00:04,VALID,917.831,VALID,0,INVALID,114.839,VALID,187.7,VALID,20.93,VALID,8,VALID,0.139844,
2016-11-27, 16:01:04,VALID,917.837,VALID,0,INVALID,114.793,VALID,212.089,VALID,20.9901,VALID,187,VALID,0.326172,
2016-11-27, 16:02:04,VALID,917.855,VALID,0,INVALID,114.9,VALID,269.14,VALID,20.912,VALID,267,VALID,0.337891,
2016-11-27, 16:03:04,VALID,917.844,VALID,0,INVALID,114.976,VALID,270.537,VALID,20.912,VALID,337,VALID,0,
2016-11-27, 16:04:04,VALID,917.849,VALID,0,INVALID,115.091,VALID,255.065,VALID,20.873,VALID,329,VALID,0,
2016-11-27, 16:05:04,VALID,917.857,VALID,0,INVALID,115.098,VALID,213.056,VALID,20.912,VALID,34,VALID,0,
2016-11-27, 16:06:04,VALID,917.915,VALID,0,INVALID,115.258,VALID,196.94,VALID,20.8519,VALID,36,VALID,0,
2016-11-27, 16:07:04,VALID,917.876,VALID,0,INVALID,115.312,VALID,270.644,VALID,20.8925,VALID,35,VALID,0.386719,
2016-11-27, 16:08:04,VALID,917.855,VALID,0,INVALID,115.342,VALID,271.934,VALID,20.891,VALID,34,VALID,0.395703,
2016-11-27, 16:09:04,VALID,917.884,VALID,0,INVALID,115.327,VALID,196.51,VALID,20.912,VALID,200,VALID,1.24336,
2016-11-27, 16:10:04,VALID,917.872,VALID,0,INVALID,115.403,VALID,271.289,VALID,20.8925,VALID,171,VALID,0.461719,
2016-11-27, 16:11:04,VALID,917.895,VALID,0,INVALID,115.289,VALID,212.519,VALID,21.0096,VALID,164,VALID,0,
2016-11-27, 16:12:04,VALID,917.894,VALID,0,INVALID,115.274,VALID,273.867,VALID,21.1266,VALID,41,VALID,1.07578,
2016-11-27, 16:13:04,VALID,917.885,VALID,0,INVALID,115.251,VALID,343.919,VALID,21.1657,VALID,308,VALID,0.701563,
2016-11-27, 16:14:04,VALID,917.854,VALID,0,INVALID,115.579,VALID,381.631,VALID,20.9495,VALID,360,VALID,1.2957,
2016-11-27, 16:15:04,VALID,917.869,VALID,0,INVALID,115.297,VALID,234.437,VALID,21.2031,VALID,31,VALID,0.532812,
2016-11-27, 16:16:04,VALID,917.818,VALID,0,INVALID,115.51,VALID,328.448,VALID,21.1445,VALID,284,VALID,1.05469,
2016-11-27, 16:17:04,VALID,917.876,VALID,0,INVALID,115.731,VALID,210.047,VALID,21.0665,VALID,265,VALID,0,
2016-11-27, 16:18:04,VALID,917.859,VALID,0,INVALID,115.739,VALID,247.759,VALID,21.125,VALID,185,VALID,0.414453,
2016-11-27, 16:19:04,VALID,917.808,VALID,0,INVALID,115.685,VALID,350.151,VALID,21.2015,VALID,67,VALID,0,
2016-11-27, 16:20:04,VALID,917.828,VALID,0,INVALID,115.838,VALID,313.621,VALID,21.2616,VALID,333,VALID,1.06484,
2016-11-27, 16:21:04,VALID,917.842,VALID,0,INVALID,116.173,VALID,270.107,VALID,21.1445,VALID,262,VALID,0,
2016-11-27, 16:22:04,VALID,917.781,VALID,0,INVALID,115.998,VALID,359.928,VALID,21.3006,VALID,333,VALID,0,
2016-11-27, 16:23:04,VALID,917.757,VALID,0,INVALID,115.906,VALID,342.522,VALID,21.3981,VALID,312,VALID,0,
2016-11-27, 16:24:04,VALID,917.771,VALID,0,INVALID,116.166,VALID,279.025,VALID,21.3981,VALID,356,VALID,0,
2016-11-27, 16:25:04,VALID,917.745,VALID,0,INVALID,116.341,VALID,361.002,VALID,21.4567,VALID,330,VALID,0,
2016-11-27, 16:26:04,VALID,917.781,VALID,0,INVALID,116.387,VALID,270.859,VALID,21.4355,VALID,222,VALID,0,
2016-11-27, 16:27:04,VALID,917.785,VALID,0,INVALID,116.211,VALID,352.407,VALID,21.6128,VALID,265,VALID,0,
2016-11-27, 16:28:04,VALID,917.755,VALID,0,INVALID,116.097,VALID,345.961,VALID,21.7867,VALID,16,VALID,0,
2016-11-27, 16:29:04,VALID,917.801,VALID,0,INVALID,116.6,VALID,268.818,VALID,21.7477,VALID,283,VALID,0,
2016-11-27, 16:30:04,VALID,917.764,VALID,0,INVALID,117.195,VALID,318.67,VALID,21.629,VALID,353,VALID,1.26563,
2016-11-27, 16:31:04,VALID,917.771,VALID,0,INVALID,117.218,VALID,266.132,VALID,21.6891,VALID,28,VALID,0,
2016-11-27, 16:32:04,VALID,917.73,VALID,0,INVALID,117.431,VALID,316.951,VALID,21.7087,VALID,322,VALID,0,
2016-11-27, 16:33:04,VALID,917.743,VALID,0,INVALID,117.949,VALID,324.043,VALID,21.5721,VALID,314,VALID,0,
2016-11-27, 16:34:04,VALID,917.737,VALID,0,INVALID,117.896,VALID,237.445,VALID,21.629,VALID,8,VALID,0,
2016-11-27, 16:35:04,VALID,917.722,VALID,0,INVALID,117.82,VALID,250.768,VALID,21.7282,VALID,306,VALID,0,
2016-11-27, 16:36:04,VALID,917.741,VALID,0,INVALID,118.087,VALID,257.322,VALID,21.7477,VALID,102,VALID,0,
2016-11-27, 16:37:04,VALID,917.783,VALID,0,INVALID,118.559,VALID,256.784,VALID,21.7282,VALID,125,VALID,0.850781,
2016-11-27, 16:38:04,VALID,917.755,VALID,0,INVALID,118.651,VALID,260.975,VALID,21.7883,VALID,191,VALID,0,
2016-11-27, 16:39:04,VALID,917.765,VALID,0,INVALID,119.055,VALID,262.801,VALID,21.7867,VALID,20,VALID,0,
2016-11-27, 16:40:04,VALID,917.79,VALID,0,INVALID,119.581,VALID,237.015,VALID,21.7477,VALID,6,VALID,0,
2016-11-27, 16:41:04,VALID,917.778,VALID,0,INVALID,119.825,VALID,292.562,VALID,21.7672,VALID,346,VALID,0,
2016-11-27, 16:42:04,VALID,917.774,VALID,0,INVALID,119.993,VALID,265.702,VALID,21.8257,VALID,11,VALID,0.258984,
2016-11-27, 16:43:04,VALID,917.788,VALID,0,INVALID,120.724,VALID,282.678,VALID,21.8079,VALID,353,VALID,0,
2016-11-27, 16:44:04,VALID,917.787,VALID,0,INVALID,121.304,VALID,273.545,VALID,21.7477,VALID,350,VALID,0,
2016-11-27, 16:45:04,VALID,917.828,VALID,0,INVALID,121.99,VALID,273.008,VALID,21.7282,VALID,2,VALID,0,
2016-11-27, 16:46:04,VALID,917.792,VALID,0,INVALID,122.219,VALID,284.719,VALID,21.7867,VALID,308,VALID,0,
2016-11-27, 16:47:04,VALID,917.828,VALID,0,INVALID,122.745,VALID,291.595,VALID,21.8257,VALID,344,VALID,0.298438,
2016-11-27, 16:48:04,VALID,917.765,VALID,0,INVALID,123.469,VALID,299.653,VALID,21.8045,VALID,5,VALID,1.51875,
2016-11-27, 16:49:04,VALID,917.786,VALID,0,INVALID,124.239,VALID,335.324,VALID,21.7867,VALID,344,VALID,1.10781,
2016-11-27, 16:50:04,VALID,917.783,VALID,0,INVALID,124.711,VALID,304.166,VALID,21.7265,VALID,22,VALID,0.00585938,
2016-11-27, 16:51:04,VALID,917.823,VALID,0,INVALID,125.001,VALID,300.943,VALID,21.7672,VALID,320,VALID,0,
2016-11-27, 16:52:04,VALID,917.764,VALID,0,INVALID,125.108,VALID,378.408,VALID,21.8647,VALID,64,VALID,0,
2016-11-27, 16:53:04,VALID,917.777,VALID,0,INVALID,125.215,VALID,304.381,VALID,21.9021,VALID,2,VALID,0.403906,
2016-11-27, 16:54:04,VALID,917.787,VALID,0,INVALID,125.237,VALID,299.009,VALID,21.9216,VALID,358,VALID,1.55117,
2016-11-27, 16:55:04,VALID,917.746,VALID,0,INVALID,124.933,VALID,301.372,VALID,21.9038,VALID,27,VALID,1.5168,
2016-11-27, 16:56:04,VALID,917.772,VALID,0,INVALID,124.521,VALID,294.604,VALID,21.9233,VALID,192,VALID,0.625781,
2016-11-27, 16:57:04,VALID,917.727,VALID,0,INVALID,124.14,VALID,302.554,VALID,21.9428,VALID,10,VALID,0.812891,
2016-11-27, 16:58:04,VALID,917.739,VALID,0,INVALID,123.568,VALID,297.934,VALID,21.9623,VALID,4,VALID,1.80742,
2016-11-27, 16:59:04,VALID,917.77,VALID,0,INVALID,123.797,VALID,263.553,VALID,21.9996,VALID,24,VALID,1.53281,
2016-11-27, 17:00:04,VALID,917.777,VALID,0,INVALID,123.515,VALID,250.016,VALID,21.9996,VALID,360,VALID,1.59258,
2016-11-27, 17:01:04,VALID,917.764,VALID,0,INVALID,122.394,VALID,265.38,VALID,21.9606,VALID,2,VALID,1.89063,
2016-11-27, 17:02:04,VALID,917.754,VALID,0,INVALID,122.531,VALID,290.843,VALID,21.9606,VALID,346,VALID,0.96875,
2016-11-27, 17:03:04,VALID,917.823,VALID,0,INVALID,121.609,VALID,304.596,VALID,21.9623,VALID,357,VALID,1.78125,
2016-11-27, 17:04:04,VALID,917.786,VALID,0,INVALID,121.738,VALID,298.686,VALID,21.9996,VALID,15,VALID,1.77344,
2016-11-27, 17:05:04,VALID,917.8,VALID,0,INVALID,120.953,VALID,330.382,VALID,22.0387,VALID,9,VALID,2.29883,
2016-11-27, 17:06:04,VALID,917.834,VALID,0,INVALID,121.395,VALID,371.317,VALID,22.1184,VALID,349,VALID,1.39844,
2016-11-27, 17:07:04,VALID,917.789,VALID,0,INVALID,117.218,VALID,367.234,VALID,22.0777,VALID,189,VALID,1.30508,
2016-11-27, 17:08:04,VALID,917.824,VALID,0,INVALID,109.442,VALID,348.861,VALID,22.1362,VALID,45,VALID,1.4625,
2016-11-27, 17:09:04,VALID,917.827,VALID,0,INVALID,117.553,VALID,381.846,VALID,22.2354,VALID,9,VALID,1.97344,
2016-11-27, 17:10:04,VALID,917.708,VALID,0,INVALID,113.901,VALID,365.837,VALID,22.1557,VALID,47,VALID,2.19492,
2016-11-27, 17:11:04,VALID,917.802,VALID,0,INVALID,119.832,VALID,327.803,VALID,22.2533,VALID,324,VALID,1.67539,
2016-11-27, 17:12:04,VALID,917.87,VALID,0,INVALID,115.769,VALID,308.571,VALID,22.2728,VALID,54,VALID,1.06758,
2016-11-27, 17:13:04,VALID,917.83,VALID,0,INVALID,109.32,VALID,301.372,VALID,22.2923,VALID,257,VALID,1.05313,
2016-11-27, 17:14:04,VALID,917.812,VALID,0,INVALID,117.111,VALID,285.686,VALID,22.3313,VALID,35,VALID,2.28398,
2016-11-27, 17:15:04,VALID,917.828,VALID,0,INVALID,116.859,VALID,312.439,VALID,22.3899,VALID,259,VALID,0,
2016-11-27, 17:16:04,VALID,917.814,VALID,0,VALID,103.122,VALID,396.458,VALID,22.3703,VALID,20,VALID,2.46563,
2016-11-27, 17:17:04,VALID,917.833,VALID,0,INVALID,114.328,VALID,430.194,VALID,22.4484,VALID,346,VALID,1.30859,
2016-11-27, 17:18:04,VALID,917.813,VALID,0,INVALID,112.598,VALID,334.035,VALID,22.4484,VALID,13,VALID,1.44805,
2016-11-27, 17:19:04,VALID,917.819,VALID,0,INVALID,117.667,VALID,313.943,VALID,22.4662,VALID,328,VALID,1.51992,
2016-11-27, 17:20:04,VALID,917.775,VALID,0,INVALID,117.256,VALID,302.769,VALID,22.5477,VALID,60,VALID,0.943359,
2016-11-27, 17:21:04,VALID,917.854,VALID,0,INVALID,118.887,VALID,320.712,VALID,22.5477,VALID,16,VALID,1.21328,
2016-11-27, 17:22:04,VALID,917.761,VALID,0,INVALID,117.172,VALID,349.291,VALID,22.4289,VALID,18,VALID,3.80664,
2016-11-27, 17:23:04,VALID,917.782,VALID,0,INVALID,115.312,VALID,330.167,VALID,22.2533,VALID,4,VALID,2.20273,
2016-11-27, 17:24:04,VALID,917.795,VALID,0,INVALID,117.439,VALID,298.149,VALID,22.1769,VALID,269,VALID,0.501953,
2016-11-27, 17:25:04,VALID,917.86,VALID,0,INVALID,119.711,VALID,259.148,VALID,22.1167,VALID,6,VALID,2.59922,
2016-11-27, 17:26:04,VALID,917.788,VALID,0,INVALID,119.634,VALID,257.536,VALID,22.1184,VALID,2,VALID,1.39961,
2016-11-27, 17:27:04,VALID,917.78,VALID,0,INVALID,119.474,VALID,293.959,VALID,22.1362,VALID,340,VALID,0.890234,
2016-11-27, 17:28:04,VALID,917.803,VALID,0,INVALID,120.076,VALID,308.356,VALID,22.2159,VALID,21,VALID,0,
2016-11-27, 17:29:04,VALID,917.776,VALID,0,INVALID,118.88,VALID,280.421,VALID,22.1947,VALID,21,VALID,2.66875,
2016-11-27, 17:30:04,VALID,917.742,VALID,0,INVALID,118.483,VALID,243.569,VALID,22.1769,VALID,19,VALID,1.71641,
2016-11-27, 17:31:04,VALID,917.801,VALID,0,INVALID,118.491,VALID,236.263,VALID,22.2159,VALID,33,VALID,0.923437,
2016-11-27, 17:32:04,VALID,917.795,VALID,0,INVALID,117.233,VALID,244.106,VALID,22.255,VALID,30,VALID,1.44258,
2016-11-27, 17:33:04,VALID,917.792,VALID,0,INVALID,116.516,VALID,263.875,VALID,22.294,VALID,325,VALID,0.680859,
2016-11-27, 17:34:04,VALID,917.799,VALID,0,INVALID,119.047,VALID,286.438,VALID,22.2923,VALID,23,VALID,2.28008,
2016-11-27, 17:35:04,VALID,917.734,VALID,0,INVALID,119.528,VALID,314.48,VALID,22.3118,VALID,14,VALID,0.808203,
2016-11-27, 17:36:04,VALID,917.756,VALID,0,INVALID,118.88,VALID,326.836,VALID,22.3313,VALID,326,VALID,0,
2016-11-27, 17:37:04,VALID,917.737,VALID,0,INVALID,112.522,VALID,345.208,VALID,22.372,VALID,42,VALID,0,
2016-11-27, 17:38:04,VALID,917.753,VALID,0,INVALID,117.561,VALID,360.358,VALID,22.4094,VALID,2,VALID,1.16484,
2016-11-27, 17:39:04,VALID,917.742,VALID,0,INVALID,113.551,VALID,356.597,VALID,22.4501,VALID,356,VALID,0.533984,
2016-11-27, 17:40:04,VALID,917.723,VALID,0,VALID,104,VALID,392.268,VALID,22.5086,VALID,11,VALID,2.04023,
2016-11-27, 17:41:04,VALID,917.695,VALID,0,VALID,98.9672,VALID,361.11,VALID,22.4874,VALID,219,VALID,0.764063,
2016-11-27, 17:42:04,VALID,917.682,VALID,0,INVALID,113.414,VALID,357.994,VALID,22.5867,VALID,14,VALID,0.751562,
2016-11-27, 17:43:04,VALID,917.678,VALID,0,INVALID,114.671,VALID,365.837,VALID,22.6435,VALID,320,VALID,0.144141,
2016-11-27, 17:44:04,VALID,917.666,VALID,0,VALID,94.8353,VALID,354.448,VALID,22.6045,VALID,235,VALID,0.876953,
2016-11-27, 17:45:04,VALID,917.653,VALID,0,VALID,94.5761,VALID,337.258,VALID,22.6257,VALID,346,VALID,0.211328,
2016-11-27, 17:46:04,VALID,917.631,VALID,0,INVALID,109.366,VALID,348.002,VALID,22.624,VALID,101,VALID,1.35391,
2016-11-27, 17:47:04,VALID,917.623,VALID,0,INVALID,110.494,VALID,387.648,VALID,22.6435,VALID,347,VALID,1.26484,
2016-11-27, 17:48:04,VALID,917.591,VALID,0,INVALID,117.332,VALID,472.526,VALID,22.7411,VALID,26,VALID,1.41211,
2016-11-27, 17:49:04,VALID,917.586,VALID,0,VALID,104,VALID,403.012,VALID,22.7801,VALID,281,VALID,1.09063,
2016-11-27, 17:50:04,VALID,917.551,VALID,0,INVALID,112.079,VALID,420.632,VALID,22.8794,VALID,25,VALID,1.36641,
2016-11-27, 17:51:04,VALID,917.51,VALID,0,VALID,102.931,VALID,390.871,VALID,22.9362,VALID,323,VALID,0.396484,
2016-11-27, 17:52:04,VALID,917.511,VALID,0,VALID,103.564,VALID,372.606,VALID,22.954,VALID,29,VALID,1.1207,
2016-11-27, 17:53:04,VALID,917.507,VALID,0,INVALID,112.849,VALID,367.879,VALID,23.0338,VALID,22,VALID,2.05625,
2016-11-27, 17:54:04,VALID,917.472,VALID,0,VALID,90.6805,VALID,370.35,VALID,22.9345,VALID,2,VALID,2.54023,
2016-11-27, 17:55:04,VALID,917.458,VALID,0,VALID,93.6689,VALID,331.026,VALID,22.8387,VALID,22,VALID,1.24766,
2016-11-27, 17:56:04,VALID,917.432,VALID,0,VALID,104,VALID,538.602,VALID,22.8582,VALID,286,VALID,0.0289063,
2016-11-27, 17:57:04,VALID,917.433,VALID,0,VALID,93.4936,VALID,390.656,VALID,22.8972,VALID,346,VALID,0.682422,
2016-11-27, 17:58:04,VALID,917.41,VALID,0,VALID,98.708,VALID,401.615,VALID,22.8955,VALID,1,VALID,0.216406,
2016-11-27, 17:59:04,VALID,917.414,VALID,0,VALID,104,VALID,451.468,VALID,23.0143,VALID,101,VALID,1.55352,
2016-11-27, 18:00:04,VALID,917.336,VALID,0,VALID,98.525,VALID,499.279,VALID,22.9948,VALID,23,VALID,1.95508,
2016-11-27, 18:01:04,VALID,917.32,VALID,0,VALID,104,VALID,491.651,VALID,23.0533,VALID,23,VALID,2.34375,
2016-11-27, 18:02:04,VALID,917.328,VALID,0,VALID,96.6115,VALID,505.188,VALID,23.1119,VALID,6,VALID,2.97539,
2016-11-27, 18:03:04,VALID,917.296,VALID,0,VALID,104,VALID,480.047,VALID,23.1296,VALID,12,VALID,1.70156,
2016-11-27, 18:04:04,VALID,917.318,VALID,0,VALID,101.605,VALID,506.585,VALID,23.3053,VALID,12,VALID,0.247656,
2016-11-27, 18:05:04,VALID,917.292,VALID,0,VALID,104,VALID,477.576,VALID,23.4224,VALID,34,VALID,2.10664,
2016-11-27, 18:06:04,VALID,917.244,VALID,0,VALID,88.2487,VALID,440.831,VALID,23.4419,VALID,27,VALID,3.1,
2016-11-27, 18:07:04,VALID,917.287,VALID,0,VALID,92.1061,VALID,442.765,VALID,23.4614,VALID,20,VALID,0.839453,
2016-11-27, 18:08:04,VALID,917.281,VALID,0,VALID,89.0949,VALID,323.935,VALID,23.559,VALID,6,VALID,0.735156,
2016-11-27, 18:09:04,VALID,917.256,VALID,0,VALID,87.2043,VALID,296.86,VALID,23.5785,VALID,216,VALID,0.0609375,
2016-11-27, 18:10:04,VALID,917.313,VALID,0,VALID,91.0083,VALID,322.646,VALID,23.6566,VALID,65,VALID,0.529297,
2016-11-27, 18:11:04,VALID,917.25,VALID,0,VALID,86.7545,VALID,365.085,VALID,23.6566,VALID,30,VALID,2.29688,
2016-11-27, 18:12:04,VALID,917.204,VALID,0,VALID,84.1091,VALID,396.565,VALID,23.5004,VALID,275,VALID,2.27969,
2016-11-27, 18:13:04,VALID,917.205,VALID,0,VALID,96.1618,VALID,355.308,VALID,23.2662,VALID,9,VALID,1.81875,
2016-11-27, 18:14:04,VALID,917.183,VALID,0,INVALID,109.503,VALID,341.126,VALID,23.2449,VALID,26,VALID,0.962891,
2016-11-27, 18:15:04,VALID,917.104,VALID,0,VALID,99.234,VALID,726.195,VALID,23.323,VALID,27,VALID,2.38438,
2016-11-27, 18:16:04,VALID,917.094,VALID,0,VALID,94.3017,VALID,475.535,VALID,23.323,VALID,329,VALID,1.17148,
2016-11-27, 18:17:04,VALID,917.052,VALID,0,VALID,86.9069,VALID,682.896,VALID,23.1509,VALID,292,VALID,0.25,
2016-11-27, 18:18:04,VALID,916.934,VALID,0,INVALID,109.739,VALID,508.626,VALID,22.9735,VALID,354,VALID,3.37773,
2016-11-27, 18:19:04,VALID,917.01,VALID,0,INVALID,112.285,VALID,473.601,VALID,22.9167,VALID,19,VALID,2.40195,
2016-11-27, 18:20:04,VALID,917.016,VALID,0,INVALID,114.351,VALID,431.484,VALID,22.9557,VALID,337,VALID,1.48477,
2016-11-27, 18:21:04,VALID,916.978,VALID,0,INVALID,109.594,VALID,374.54,VALID,22.8387,VALID,84,VALID,1.38477,
2016-11-27, 18:22:04,VALID,917.021,VALID,0,INVALID,115.586,VALID,316.844,VALID,22.7589,VALID,23,VALID,1.42305,
2016-11-27, 18:23:04,VALID,917.034,VALID,0,INVALID,115.983,VALID,216.279,VALID,22.7784,VALID,15,VALID,0.125781,
2016-11-27, 18:24:04,VALID,917.036,VALID,0,INVALID,115.312,VALID,205.642,VALID,22.7962,VALID,3,VALID,0.722266,
2016-11-27, 18:25:04,VALID,917.068,VALID,0,INVALID,113.261,VALID,272.578,VALID,22.7962,VALID,117,VALID,0,
2016-11-27, 18:26:04,VALID,917.065,VALID,0,INVALID,115.037,VALID,375.829,VALID,22.7979,VALID,351,VALID,0,
2016-11-27, 18:27:04,VALID,917.021,VALID,0,INVALID,117.812,VALID,315.447,VALID,22.8369,VALID,37,VALID,0,
2016-11-27, 18:28:04,VALID,917.024,VALID,0,INVALID,117.378,VALID,263.983,VALID,22.8742,VALID,30,VALID,0,
2016-11-27, 18:29:04,VALID,917,VALID,0,INVALID,116.692,VALID,269.14,VALID,22.8955,VALID,5,VALID,0.157031,
2016-11-27, 18:30:04,VALID,916.985,VALID,0,INVALID,114.656,VALID,302.125,VALID,22.7376,VALID,316,VALID,0.331641,
2016-11-27, 18:31:04,VALID,916.992,VALID,0,INVALID,116.89,VALID,329.522,VALID,22.6401,VALID,298,VALID,0,
2016-11-27, 18:32:04,VALID,916.923,VALID,0,INVALID,110.73,VALID,341.985,VALID,22.6223,VALID,272,VALID,1.72695,
2016-11-27, 18:33:04,VALID,916.954,VALID,0,INVALID,118.102,VALID,320.282,VALID,22.6028,VALID,339,VALID,0.738672,
2016-11-27, 18:34:04,VALID,916.946,VALID,0,INVALID,116.73,VALID,341.663,VALID,22.6011,VALID,68,VALID,0,
2016-11-27, 18:35:04,VALID,916.967,VALID,0,INVALID,118.963,VALID,373.68,VALID,22.7376,VALID,335,VALID,0.380469,
2016-11-27, 18:36:04,VALID,916.898,VALID,0,INVALID,119.611,VALID,350.366,VALID,22.7962,VALID,27,VALID,1.11328,
2016-11-27, 18:37:04,VALID,916.914,VALID,0,INVALID,119.596,VALID,335.431,VALID,22.8157,VALID,9,VALID,1.28203,
2016-11-27, 18:38:04,VALID,916.948,VALID,0,INVALID,119.512,VALID,399.896,VALID,22.8157,VALID,170,VALID,0,
2016-11-27, 18:39:04,VALID,916.862,VALID,0,INVALID,118.178,VALID,474.03,VALID,22.8564,VALID,160,VALID,0,
2016-11-27, 18:40:04,VALID,916.891,VALID,0,INVALID,116.646,VALID,383.78,VALID,22.8564,VALID,331,VALID,0.0242187,
2016-11-27, 18:41:04,VALID,916.883,VALID,0,INVALID,114.908,VALID,461.782,VALID,22.7394,VALID,357,VALID,1.6543,
2016-11-27, 18:42:04,VALID,916.846,VALID,0,INVALID,120.061,VALID,322.109,VALID,22.7216,VALID,340,VALID,0.441797,
2016-11-27, 18:43:04,VALID,916.826,VALID,0,INVALID,120.862,VALID,392.805,VALID,22.6808,VALID,3,VALID,1.30664,
2016-11-27, 18:44:04,VALID,916.842,VALID,0,INVALID,120.976,VALID,397.962,VALID,22.6825,VALID,19,VALID,1.39727,
2016-11-27, 18:45:04,VALID,916.82,VALID,0,INVALID,121.456,VALID,373.036,VALID,22.6223,VALID,41,VALID,0.485938,
2016-11-27, 18:46:04,VALID,916.874,VALID,0,INVALID,118.765,VALID,337.58,VALID,22.4467,VALID,311,VALID,1.67188,
2016-11-27, 18:47:04,VALID,916.803,VALID,0,INVALID,120.061,VALID,317.811,VALID,22.2906,VALID,19,VALID,1.1625,
2016-11-27, 18:48:04,VALID,916.785,VALID,0,INVALID,122.714,VALID,331.456,VALID,22.3491,VALID,351,VALID,0.417969,
2016-11-27, 18:49:04,VALID,916.803,VALID,0,INVALID,122.562,VALID,499.601,VALID,22.3296,VALID,350,VALID,0.741797,
2016-11-27, 18:50:04,VALID,916.773,VALID,0,INVALID,122.607,VALID,426.971,VALID,22.3508,VALID,314,VALID,0.0121094,
2016-11-27, 18:51:04,VALID,916.785,VALID,0,INVALID,121.304,VALID,340.588,VALID,22.2338,VALID,3,VALID,0.425781,
2016-11-27, 18:52:04,VALID,916.75,VALID,0,INVALID,122.615,VALID,354.233,VALID,22.3296,VALID,28,VALID,0,
2016-11-27, 18:53:04,VALID,916.78,VALID,0,INVALID,122.325,VALID,372.391,VALID,22.3899,VALID,222,VALID,0.513281,
2016-11-27, 18:54:04,VALID,916.807,VALID,0,INVALID,121.449,VALID,347.035,VALID,22.3296,VALID,301,VALID,0.00078125,
2016-11-27, 18:55:04,VALID,916.821,VALID,0,INVALID,121.09,VALID,329.522,VALID,22.3881,VALID,277,VALID,1.37344,
2016-11-27, 18:56:04,VALID,916.852,VALID,0,INVALID,121.426,VALID,309.86,VALID,22.4484,VALID,8,VALID,1.21445,
2016-11-27, 18:57:04,VALID,916.837,VALID,0,INVALID,121.799,VALID,287.62,VALID,22.5637,VALID,37,VALID,0.149609,
2016-11-27, 18:58:04,VALID,916.852,VALID,0,INVALID,120.824,VALID,211.229,VALID,22.5833,VALID,313,VALID,0,
2016-11-27, 18:59:04,VALID,916.841,VALID,0,INVALID,120.16,VALID,198.014,VALID,22.6435,VALID,4,VALID,1.74727,
2016-11-27, 19:00:04,VALID,916.886,VALID,0,INVALID,120.48,VALID,215.742,VALID,22.5833,VALID,338,VALID,0.0289063,
2016-11-27, 19:01:04,VALID,916.849,VALID,0,INVALID,120.671,VALID,292.133,VALID,22.6435,VALID,25,VALID,0.603125,
2016-11-27, 19:02:04,VALID,916.86,VALID,0,INVALID,118.491,VALID,516.362,VALID,22.5247,VALID,301,VALID,0.0335938,
2016-11-27, 19:03:04,VALID,916.86,VALID,0,INVALID,119.589,VALID,498.527,VALID,22.6045,VALID,32,VALID,0,
2016-11-27, 19:04:04,VALID,916.854,VALID,0,INVALID,120.328,VALID,554.719,VALID,22.7801,VALID,21,VALID,0.962891,
2016-11-27, 19:05:04,VALID,916.829,VALID,0,INVALID,115.784,VALID,422.136,VALID,22.7996,VALID,298,VALID,1.32852,
2016-11-27, 19:06:04,VALID,916.819,VALID,0,INVALID,118.033,VALID,574.166,VALID,22.7784,VALID,45,VALID,0.627734,
2016-11-27, 19:07:04,VALID,916.765,VALID,0,INVALID,117.713,VALID,434.707,VALID,22.7606,VALID,14,VALID,3.35781,